ATLAS 5 CENTAUR DEB, 43991

Orbit data source: Space-Track

ATLAS 5 CENTAUR DEB, 43991 is space debris in HEO originally from a launch on Wed, 17 Sep 2014 UTC launched from the Air Force Eastern Test Range (AFETR). Debris objects in space refer to the collection of defunct objects orbiting the Earth. Examples of debris include non-operational satellites, rocket bodies, and fragments generated from explosions, collisions, or faulty payload assembly.

Loading next visibility...
Identifier
43991, 2014-055AW
Orbit
HEO
Country
Flag of USUS
Related business
Flag of USUnited Launch Alliance/Lockheed Martin (US)
Manufacturer
Unknown
Mission
Spacecraft
Bus & Motor
Unknown
Mass
Unknown
Launch date (UTC)
2014-09-17 (12 years ago)
Launch vehicle
Unknown
Launch site
Air Force Eastern Test Range (AFETR)
Object type
Payload
Rocket body
Debris
Shape & HBR
Unknown shape, 1.1 m
Radar Cross Section
Medium (>0.1 m² and <1 m²)

Expand to show TLE details & history
Last TLE update: 3 days ago

TLE from 3 days ago
0 ATLAS 5 CENTAUR DEB
1 43991U 14055AW  26170.51978590 -.00000034  00000-0  00000-0 0  9999
2 43991  19.5632 172.7517 4633160 116.9074 297.4039  1.82439106 51368
Epoch: 2026-06-19T12:28Z
TLE epoch observation values (Epoch: 2026-06-19T12:28:29.501Z)
Latitude
-0°
Longitude
77.89065°
Altitude
21,700.437 km
Speed
3.782 km/s
True Right ascension
11h 31m 02s
True Declination
0° 00' 00"
Sunlit
Object was in daylight at epoch
Visualization orbit readout
Latitude
Unknown
Longitude
Unknown
Altitude
Unknown
Speed
Unknown
Apparent Right ascension
Unknown
Apparent Declination
Unknown
Sunlit
N/A
Visualization observer readout
Local Sidereal Time
21:55:38
Azimuth
Unknown
Elevation
Unknown
Doppler factor
Unknown
Orbital elements
Apogee altitude
35,024.071 km
Perigee altitude
8,806.486 km
Semi-major axis
28,293.416 km
Eccentricity
0.46332
Inclination
19.5632°
RAAN
172.7517°
Arg. of periapsis
116.9074°
True anomaly
243.16425°
Mean anomaly
297.4039°
Eccentric anomaly
270.86084°
Mean motion
0.45605 °/min
Orbital period
789.38 mins
BSTAR
0
Loading maneuver chart data...
Computing Atmospheric mass density...

Documentation

Showing up to 5 results
|